Regional Weather Roundup
Issued by NWS

Home | Current Version | Previous Version | Text Only | Print | Product List | Glossary Off
Versions: 1 2 3 4 5 6 7 8 9 10 11 12 13 14 15 16 17 18 19 20 21 22 23 24 25 26 27 28 29 30 31 32 33 34 35 36 37 38 39 40 41 42 43 44 45 46 47 48

000
ASUS45 KBOU 192107
RWRCO

WEATHER ROUNDUP FOR COLORADO
NATIONAL WEATHER SERVICE DENVER/BOULDER CO
300 PM MDT FRI SEP 19 2014

NOTE: "FAIR" INDICATES FEW OR NO CLOUDS BELOW 12000 FEET WITH NO
SIGNIFICANT WEATHER AND/OR OBSTRUCTIONS TO VISIBILITY.

COZ001>005-013-030-031-192200-
...NORTHWEST COLORADO...

CITY           SKY/WX    TMP DP  RH WIND       PRES   REMARKS
CRAIG          SUNNY     83  42  23 NW10G17   30.09F
HAYDEN         SUNNY     81  37  21 NW9       30.11S
MEEKER         MOSUNNY   80  41  24 W9        30.11F
MOUNT WERNER   NOT AVBL
STEAMBOAT SPGS SUNNY     78  39  24 W8G20     30.12F
WALDEN         SUNNY     73  34  23 W7G16     30.21F
$$

COZ006>008-011-192200-
...WEST CENTRAL VALLEYS...

CITY           SKY/WX    TMP DP  RH WIND       PRES   REMARKS
GRAND JUNCTION SUNNY     86  41  20 MISG      29.98F
MONTROSE       MOSUNNY   86  43  22 NW9       30.07F
EAGLE          MOSUNNY   82  36  18 W9        30.09F
RIFLE          SUNNY     84  40  21 W6        30.02F
DELTA          MOSUNNY   90  41  18 SW7       30.01F HAZE
NUCLA          MOSUNNY   81  41  24 W3        30.11F
$$

COZ017>023-064>068-192200-
...SOUTHWEST COLORADO...

CITY           SKY/WX    TMP DP  RH WIND       PRES   REMARKS
DURANGO        MOSUNNY   82  40  22 W8G22     30.09F
CORTEZ         SUNNY     84  45  25 W7        30.06F
PAGOSA SPRINGS PTSUNNY   80  34  19 SW10      30.15F
TELLURIDE      NOT AVBL
WOLF CREEK PAS CLOUDY    55  28  35 W3        30.49S
$$

COZ009-010-012-014-032>034-037-058>063-192200-
...CENTRAL COLORADO...

CITY           SKY/WX    TMP DP  RH WIND       PRES   REMARKS
ASPEN          MOSUNNY   78  35  21 MISG      30.17F
BUENA VISTA    MOSUNNY   80  22  11 S8        30.15F
COPPER MTN     NOT AVBL
BERTHOUD PASS  PTSUNNY   52  50  93 N5G22     30.56F
COTTONWOOD PAS PTSUNNY   77  14   9 NE3       30.32F
GUNNISON       SUNNY     77  37  24 SW6       30.19F
KREMMLING      SUNNY     82  28  14 SW9       30.14F
LEADVILLE      MOSUNNY   69  27  20 VRB3      30.32F
MONARCH PASS   PTSUNNY   63  32  31 W12G21    30.60F
SALIDA         MOSUNNY   82  12   7 S3        30.19F
SUNLIGHT       MOSUNNY   64  41  42 CALM      30.45F
WILKERSON PASS NOT AVBL
$$

COZ069>075-192200-
...SAN LUIS VALLEY/SANGRE DE CRISTO MOUNTAINS...

CITY           SKY/WX    TMP DP  RH WIND       PRES   REMARKS
ALAMOSA        SUNNY     80  34  19 CALM      30.14F
LA VETA PASS   SUNNY     70  30  23 NE12      30.35S
SAGUACHE       NOT AVBL
$$

COZ035-036-038>040-192200-
...NORTHERN COLORADO FRONT RANGE...

CITY           SKY/WX    TMP DP  RH WIND       PRES   REMARKS
DENVER INTL AP MOSUNNY   85  41  21 S6        29.98F
DMNS CITY PARK   N/A     86  39  19 SE3G12    29.97F
AURORA         MOSUNNY   84  42  22 SE6       30.00F
FRONT RANGE AP MOSUNNY   86  41  20 CALM      29.99F
ERIE MUNI ARPT SUNNY     88  37  16 S7G16     29.95F
BOULDER MUN AP SUNNY     86  41  20 SE10      29.96F
CENTENNIAL     MOSUNNY   85  38  18 VRB5      30.01F
BROOMFIELD     MOSUNNY   86  41  20 S9        30.00
FORT COLLINS   SUNNY     88  48  25 S9        29.94F
LONGMONT       SUNNY     90  41  18 S6        29.96F
$$

COZ041-046-047-076>085-087-088-192200-
...PIKES PEAK/PALMER DIVIDE AND SOUTHERN FOOTHILLS...

CITY           SKY/WX    TMP DP  RH WIND       PRES   REMARKS
COLO. SPRINGS  MOSUNNY   87  35  15 E12G22    30.05F
A. F. ACADEMY  SUNNY     82  36  19 VRB5      30.07F
ELLICOTT       NOT AVBL
FALCON         MOSUNNY   82  34  17 E13G18    30.11F
FORT CARSON    MOSUNNY   88  39  18 NE13G20   30.02S
LIMON          SUNNY     87  37  17 MISG      29.98F
MONUMENT HILL  SUNNY     79  34  19 NE12      30.11F
TRINIDAD       SUNNY     84  34  16 VRB3      30.00F
$$

COZ042>045-048>051-090-091-192200-
...NORTHEAST COLORADO...

CITY           SKY/WX    TMP DP  RH WIND       PRES   REMARKS
GREELEY ARPT   SUNNY     90  46  22 SW7       29.93F
AKRON          SUNNY     88  41  19 CALM      29.92F
BURLINGTON     SUNNY     87  51  28 SW14G24   29.92F
WRAY           SUNNY     94  44  17 S10       29.86S
STERLING       SUNNY     91  52  25 E7        29.88F
HOLYOKE        SUNNY     95  52  23 SW6       29.86F
FORT MORGAN    SUNNY     89  46  22 SE9       29.92F
$$

COZ086-089-092>099-192200-
...SOUTHEAST COLORADO...

CITY           SKY/WX    TMP DP  RH WIND       PRES   REMARKS
PUEBLO         SUNNY     90  41  18 SE9       29.92F
LA JUNTA       SUNNY     90  44  20 S7        29.89F
LAMAR          SUNNY     91  56  30 S14G25    29.86F
SPRINGFIELD      N/A     83  57  41 S16G25    29.95F
$$


USA.gov is the U.S. government's official web portal to all federal, state and local government web resources and services.